Weather in Sciacca

Italy     37°30′48″N   13°04′40″E
temp.,
°C
wind,
m/s
gust,
m/s
humid.,
%
clouds,
%
prec.,
mm/h
press.,
hPa
HPBL,
m
23 june, wed
wed2323:00+24ese117065 0.0 101216
02:00+23ene22794 0.0 101316
05:00+23se22713 0.0 101322
08:00+27ese225150 0.0 101354
11:00+25w226587 0.0 1014115
14:00+28s565484 0.0 1014220
17:00+28w225622 0.0 1015197
20:00+26sw2267100 0.0 101529
24 june, thu
thu2423:00+28e4448100 0.0 101619
02:00+28nne124399 0.0 101511
05:00+25wsw6760100 0.0 101677
08:00+28ne4450100 0.0 101678
11:00+30sw324420 0.0 1017227
14:00+30s44477 0.0 1016244
17:00+28wsw5552100 0.0 1017233
20:00+27w335958 0.0 101637
25 june, fri
fri2523:00+24nnw5777100 0.0 1018100
02:00+27ne334416 0.0 101515
05:00+25nnw4558100 0.0 101647
08:00+27nnw7105597 0.0 1018246
11:00+33ne233174 0.0 1015414
14:00+30w554616 0.0 1015291
17:00+31sw1140100 0.0 1014295
20:00+28nw2256100 0.0 101529
26 june, sat
sat2623:00+28e334949 0.0 101519
02:00+25ene2261100 0.0 101414
05:00+25ssw11550 0.0 101411
08:00+25wnw22726 0.0 1016104
11:00+30wsw434538 0.0 1015436
14:00+28wsw675627 0.0 1015340
17:00+29w56495 0.0 1013335
20:00+27w3357100 0.0 101333
27 june, sun
sun2723:00+26n2260100 0.0 101513
02:00+27ene44493 0.0 101321
05:00+25w235497 0.0 101317
08:00+26s22555 0.0 101383
11:00+30sse324865 0.0 1014314
14:00+28sse545516 0.0 1014315
17:00+27s44613 0.0 1014240
20:00+25se347053 0.0 1014109